This is the latest recevied weather packets stored in our database for station/object WC4PEM-6. If no packets are shown the sender has not sent any weather packets the latest 1 day(s).
| Time | Temp. | Humidity | Pressure | Rain* | Wind** | Luminosity | Snow |
|---|---|---|---|---|---|---|---|
| 1777980606 | 19.44° C | 89% | 1014.9 hPa | 0 mm | 0.89 m/s, 80° | - | - |
| 1777980306 | 19.44° C | 90% | 1014.9 hPa | 0 mm | 0.45 m/s, 93° | - | - |
| 1777980006 | 19.44° C | 90% | 1014.6 hPa | 0 mm | 0.45 m/s, 93° | - | - |
| 1777979706 | 18.89° C | 91% | 1014.5 hPa | 0 mm | 0.89 m/s, 85° | - | - |
| 1777979406 | 18.89° C | 91% | 1014.5 hPa | 0 mm | 0.89 m/s, 51° | - | - |
| 1777979106 | 18.89° C | 91% | 1014.4 hPa | 0 mm | 0.89 m/s, 90° | - | - |
| 1777978806 | 18.89° C | 91% | 1014.5 hPa | 0 mm | 0.45 m/s, 72° | - | - |
| 1777978506 | 18.33° C | 91% | 1014.5 hPa | 0 mm | 0.45 m/s, 76° | - | - |
| 1777978206 | 18.33° C | 91% | 1014.3 hPa | 0 mm | 0.45 m/s, 67° | - | - |
| 1777978206 | 18.33° C | 91% | 1014.4 hPa | 0 mm | 0.45 m/s, 80° | - | - |
| 1777977906 | 18.33° C | 91% | 1014.3 hPa | 0 mm | 0.45 m/s, 67° | - | - |
| 1777977814 | 18.33° C | 90% | 1014.5 hPa | 0 mm | 0.45 m/s, 93° | - | - |
| 1777977610 | 18.33° C | 91% | 1014.3 hPa | 0 mm | 0.45 m/s, 9° | - | - |
| 1777977606 | 18.33° C | 90% | 1014.5 hPa | 0 mm | 0.45 m/s, 93° | - | - |
| 1777977306 | 18.33° C | 91% | 1014.3 hPa | 0 mm | 0.45 m/s, 9° | - | - |
| 1777977006 | 18.33° C | 90% | 1014.3 hPa | 0 mm | 0.45 m/s, 51° | - | - |
| 1777976706 | 18.89° C | 90% | 1014.3 hPa | 0 mm | 0.45 m/s, 309° | - | - |
| 1777976406 | 18.89° C | 90% | 1014.1 hPa | 0 mm | 0.45 m/s, 83° | - | - |
| 1777976106 | 18.89° C | 90% | 1014.1 hPa | 0 mm | 0.45 m/s, 93° | - | - |
| 1777975825 | 18.89° C | 90% | 1014.1 hPa | 0 mm | 0.45 m/s, 55° | - | - |
| 1777975806 | 18.89° C | 90% | 1014.2 hPa | 0 mm | 0.45 m/s, 9° | - | - |
| 1777975671 | 18.89° C | 90% | 1014 hPa | 0 mm | 0.45 m/s, 76° | - | - |
| 1777975506 | 18.89° C | 90% | 1014 hPa | 0 mm | 0.45 m/s, 76° | - | - |
| 1777975294 | 18.89° C | 90% | 1014.1 hPa | 0 mm | 0.45 m/s, 55° | - | - |
| 1777975206 | 18.89° C | 90% | 1014.1 hPa | 0 mm | 0.45 m/s, 51° | - | - |
* Rain latest hour (hover to see other rain measurements)
** Current wind speed in m/s (hover to see current wind gust speed)